Cosmos 1125 Rocket - Orbit

View from above orbital plane
View from above orbital plane
View from above satellite
View from above satellite

Ground track
Ground track

The orbit data is extracted from the following two-line orbital elements,

1 11511U 79078B   13145.53905648  .00000142  00000-0  57621-4 0  5150
2 11511 074.0360 161.2782 0015051 043.4474 126.0070 14.36211854765588
Epoch (UTC): 25 May 2013 12:56:14
Eccentricity: 0.0015051
inclination: 74.0360°
perigee height: 760 km
apogee height: 782 km
right ascension of ascending node: 161.2782°
argument of perigee: 43.4474°
revolutions per day: 14.36211854
mean anomaly at epoch: 126.0070°
orbit number at epoch: 76558

The dashed part of the orbit path shows where the satellite is in the earth's shadow,  

Developed and maintained by Chris Peat, Heavens-Above GmbH. Please read the updated FAQ before sending e-mail. Imprint. DLR